IK3ZGB Weather Reports


Display with metric or nautical units.
time (UTC)temp
F
wind
direction
speed
MPH
gust
MPH
rain 1hr
in
rain 24hr
in
rain mn
in
humidity
%
barometer
mb
20260901225041 75 0.0 0.0 0.00 0.00 0.00 68 1016.4
20260901224041 75 0.0 0.0 0.00 0.00 0.00 68 1016.4
20260901223041 76 0.0 0.0 0.00 0.00 0.00 68 1016.2
20260901222041 76 0.0 0.0 0.00 0.00 0.00 67 1016.0
20260901221041 76 0.0 0.0 0.00 0.00 0.00 66 1016.3
20260901220041 76 0.0 0.0 0.00 0.00 0.00 66 1016.4
20260901215042 76 0.0 0.0 0.00 0.00 0.00 67 1016.0
20260901214041 76 0.0 0.0 0.00 0.00 0.00 67 1016.0
20260901213042 77 0.0 0.0 0.00 0.00 0.00 67 1015.9
20260901212041 77 0.0 0.0 0.00 0.00 0.00 66 1015.8
20260901211041 77 0.0 0.0 0.00 0.00 0.00 66 1015.8
20260901210041 77 0.0 0.0 0.00 0.00 0.00 67 1015.8
20260901205041 77 0.0 0.0 0.00 0.00 0.00 66 1015.7
20260901204041 78 0.0 0.0 0.00 0.00 0.00 66 1015.5
20260901203042 78 0.0 0.0 0.00 0.00 0.00 65 1015.7
20260901202041 78 0.0 0.0 0.00 0.00 0.00 66 1015.8
20260901201042 78 0.0 0.0 0.00 0.00 0.00 65 1015.5
20260901200042 78 0.0 0.0 0.00 0.00 0.00 65 1015.3
20260901195042 78 0.0 0.0 0.00 0.00 0.00 64 1015.4
20260901194040 80 0.0 0.0 0.00 0.00 0.00 64 1015.3
20260901193042 79 0.0 0.0 0.00 0.00 0.00 64 1015.1
20260901192041 80 0.0 0.0 0.00 0.00 0.00 63 1015.2
20260901191040 80 0.0 0.0 0.00 0.00 0.00 63 1015.1
20260901190042 80 0.0 0.0 0.00 0.00 0.00 62 1015.0
20260901185041 81 0.0 0.0 0.00 0.00 0.00 61 1014.6
20260901184040 80 0.0 0.0 0.00 0.00 0.00 62 1014.9
20260901183041 82 0.0 0.0 0.00 0.00 0.00 59 1014.8
20260901182041 82 0.0 0.0 0.00 0.00 0.00 57 1014.7
20260901181041 82 0.0 0.0 0.00 0.00 0.00 58 1014.6
20260901180041 82 0.0 0.0 0.00 0.00 0.00 59 1014.6
20260901175041 83 0.0 0.0 0.00 0.00 0.00 58 1014.3
20260901174040 84 0.0 0.0 0.00 0.00 0.00 58 1014.3
20260901173041 84 0.0 0.0 0.00 0.00 0.00 57 1014.3
20260901172042 84 0.0 0.0 0.00 0.00 0.00 57 1014.4
20260901171041 85 0.0 0.0 0.00 0.00 0.00 57 1014.4
20260901170041 85 0.0 0.0 0.00 0.00 0.00 56 1014.5
20260901165042 85 0.0 0.0 0.00 0.00 0.00 56 1014.2
20260901164040 85 0.0 0.0 0.00 0.00 0.00 56 1014.2
20260901163041 85 0.0 0.0 0.00 0.00 0.00 56 1014.4
20260901162042 85 0.0 0.0 0.00 0.00 0.00 55 1014.6
20260901161040 86 0.0 0.0 0.00 0.00 0.00 55 1014.6
20260901160042 86 0.0 0.0 0.00 0.00 0.00 55 1014.4
20260901155041 86 0.0 0.0 0.00 0.00 0.00 55 1014.5
20260901154041 86 0.0 0.0 0.00 0.00 0.00 56 1014.8
20260901153041 86 0.0 0.0 0.00 0.00 0.00 55 1014.8
20260901152042 86 0.0 0.0 0.00 0.00 0.00 56 1014.8
20260901151042 86 0.0 0.0 0.00 0.00 0.00 55 1014.9
20260901150042 86 0.0 0.0 0.00 0.00 0.00 55 1014.9
20260901145043 87 0.0 0.0 0.00 0.00 0.00 56 1014.8
20260901144041 87 0.0 0.0 0.00 0.00 0.00 55 1014.9
20260901143041 86 0.0 0.0 0.00 0.00 0.00 55 1014.8
20260901142041 87 0.0 0.0 0.00 0.00 0.00 56 1015.2
20260901141040 87 0.0 0.0 0.00 0.00 0.00 55 1015.0
20260901140041 86 0.0 0.0 0.00 0.00 0.00 57 1015.2
20260901135042 86 0.0 0.0 0.00 0.00 0.00 57 1015.1
20260901134040 85 0.0 0.0 0.00 0.00 0.00 56 1015.7
20260901133041 87 0.0 0.0 0.00 0.00 0.00 57 1015.4
20260901132041 86 0.0 0.0 0.00 0.00 0.00 57 1015.5
20260901131041 86 0.0 0.0 0.00 0.00 0.00 57 1015.5
20260901130041 86 0.0 0.0 0.00 0.00 0.00 57 1015.6
20260901125042 86 0.0 0.0 0.00 0.00 0.00 57 1015.6
20260901124040 86 0.0 0.0 0.00 0.00 0.00 58 1015.8
20260901123042 86 0.0 0.0 0.00 0.00 0.00 58 1015.7
20260901122041 86 0.0 0.0 0.00 0.00 0.00 58 1015.9
20260901121040 86 0.0 0.0 0.00 0.00 0.00 58 1016.1
20260901120043 86 0.0 0.0 0.00 0.00 0.00 58 1015.9
20260901115041 85 0.0 0.0 0.00 0.00 0.00 58 1016.0
20260901114041 85 0.0 0.0 0.00 0.00 0.00 58 1016.4
20260901113041 85 0.0 0.0 0.00 0.00 0.00 58 1016.2
20260901112041 85 0.0 0.0 0.00 0.00 0.00 58 1016.3
20260901111041 85 0.0 0.0 0.00 0.00 0.00 60 1016.4
20260901110041 85 0.0 0.0 0.00 0.00 0.00 59 1016.6
20260901105042 84 0.0 0.0 0.00 0.00 0.00 58 1016.4
20260901104042 84 0.0 0.0 0.00 0.00 0.00 58 1016.6
20260901103041 83 0.0 0.0 0.00 0.00 0.00 57 1016.8
20260901102042 83 0.0 0.0 0.00 0.00 0.00 57 1017.0
20260901101041 84 0.0 0.0 0.00 0.00 0.00 56 1016.8
20260901100042 84 0.0 0.0 0.00 0.00 0.00 56 1016.8
20260901095042 83 0.0 0.0 0.00 0.00 0.00 57 1017.0
20260901094040 83 0.0 0.0 0.00 0.00 0.00 57 1016.7
20260901093042 82 0.0 0.0 0.00 0.00 0.00 56 1017.1
20260901092041 84 0.0 0.0 0.00 0.00 0.00 57 1017.0
20260901091040 83 0.0 0.0 0.00 0.00 0.00 57 1017.1
20260901090042 82 0.0 0.0 0.00 0.00 0.00 56 1017.2
20260901085041 83 0.0 0.0 0.00 0.00 0.00 56 1016.9
20260901084042 82 0.0 0.0 0.00 0.00 0.00 55 1016.8
20260901083041 83 0.0 0.0 0.00 0.00 0.00 55 1016.7
20260901082042 82 0.0 0.0 0.00 0.00 0.00 55 1016.6
20260901081042 82 0.0 0.0 0.00 0.00 0.00 55 1016.5
20260901080041 83 0.0 0.0 0.00 0.00 0.00 55 1016.3
20260901075042 84 0.0 0.0 0.00 0.00 0.00 55 1016.3
20260901074040 83 0.0 0.0 0.00 0.00 0.00 55 1016.4
20260901073042 84 0.0 0.0 0.00 0.00 0.00 56 1016.2
20260901072042 83 0.0 0.0 0.00 0.00 0.00 59 1016.3
20260901071041 82 0.0 0.0 0.00 0.00 0.00 61 1016.2
20260901070041 82 0.0 0.0 0.00 0.00 0.00 62 1016.5
20260901065042 81 0.0 0.0 0.00 0.00 0.00 63 1016.6
20260901064041 80 0.0 0.0 0.00 0.00 0.00 63 1016.3
20260901063041 79 0.0 0.0 0.00 0.00 0.00 64 1016.6
20260901062041 78 0.0 0.0 0.00 0.00 0.00 64 1016.4
20260901061041 77 0.0 0.0 0.00 0.00 0.00 66 1016.2
20260901060042 76 0.0 0.0 0.00 0.00 0.00 66 1016.0
20260901055042 76 0.0 0.0 0.00 0.00 0.00 66 1016.0
20260901054041 76 0.0 0.0 0.00 0.00 0.00 66 1016.0
20260901053043 76 0.0 0.0 0.00 0.00 0.00 67 1015.9
20260901052042 76 0.0 0.0 0.00 0.00 0.00 68 1015.6
20260901051041 75 0.0 0.0 0.00 0.00 0.00 68 1015.7
20260901050042 75 0.0 0.0 0.00 0.00 0.00 68 1015.5
20260901045042 75 0.0 0.0 0.00 0.00 0.00 68 1015.5
20260901044040 75 0.0 0.0 0.00 0.00 0.00 70 1015.4
20260901043042 74 0.0 0.0 0.00 0.00 0.00 73 1015.4
20260901042041 74 0.0 0.0 0.00 0.00 0.00 72 1015.3
20260901041042 75 0.0 0.0 0.00 0.00 0.00 68 1015.0
20260901040042 75 0.0 0.0 0.00 0.00 0.00 68 1014.9
20260901035041 74 0.0 0.0 0.00 0.00 0.00 74 1014.8
20260901034040 74 0.0 0.0 0.00 0.00 0.00 76 1014.7
20260901033041 74 0.0 0.0 0.00 0.00 0.00 76 1014.9
20260901032042 74 0.0 0.0 0.00 0.00 0.00 76 1014.6
20260901031040 75 0.0 0.0 0.00 0.00 0.00 75 1014.2
20260901030040 75 0.0 0.0 0.00 0.00 0.00 75 1014.3
20260901025041 74 0.0 0.0 0.00 0.00 0.00 75 1014.4
20260901024042 75 0.0 0.0 0.00 0.00 0.00 75 1014.2
20260901023040 76 0.0 0.0 0.00 0.00 0.00 74 1014.3
20260901022042 76 0.0 0.0 0.00 0.00 0.00 75 1014.1
20260901021041 76 0.0 0.0 0.00 0.00 0.00 74 1014.3
20260901020041 76 0.0 0.0 0.00 0.00 0.00 74 1014.2
20260901015041 76 0.0 0.0 0.00 0.00 0.00 73 1014.1
20260901014041 76 0.0 0.0 0.00 0.00 0.00 73 1014.1
20260901013042 76 0.0 0.0 0.00 0.00 0.00 74 1014.3
20260901012042 77 0.0 0.0 0.00 0.00 0.00 73 1014.1
20260901011042 77 0.0 0.0 0.00 0.00 0.00 74 1014.3
20260901010042 76 0.0 0.0 0.00 0.00 0.00 74 1014.2
20260901005042 77 0.0 0.0 0.00 0.00 0.00 74 1014.3
20260901004041 77 0.0 0.0 0.00 0.00 0.00 73 1013.8
20260901003041 77 0.0 0.0 0.00 0.00 0.00 74 1014.1
20260901002041 77 0.0 0.0 0.00 0.00 0.00 73 1013.8
20260901001041 77 0.0 0.0 0.00 0.00 0.00 73 1013.7
20260901000041 77 0.0 0.0 0.00 0.00 0.00 73 1013.6
20260831235042 78 0.0 0.0 0.00 0.00 0.00 72 1013.5
20260831234041 78 0.0 0.0 0.00 0.00 0.00 71 1013.0
20260831233042 78 0.0 0.0 0.00 0.00 0.00 71 1013.1
20260831232042 78 0.0 0.0 0.00 0.00 0.00 71 1012.8
20260831231040 78 0.0 0.0 0.00 0.00 0.00 71 1012.7
20260831230042 78 0.0 0.0 0.00 0.00 0.00 71 1012.3